Regional Weather Roundup
Issued by NWS

Home | Current Version | Previous Version | Graphics & Text | Print | Product List | Glossary On
Versions: 1 2 3 4 5 6 7 8 9 10 11 12 13 14 15 16 17 18 19 20 21 22 23 24 25 26 27 28 29 30 31 32 33 34 35 36 37 38 39 40 41 42 43 44 45 46 47 48 49 50
000
ASUS43 KLOT 172310
RWRIL

ILLINOIS REGIONAL WEATHER ROUNDUP
NATIONAL WEATHER SERVICE CHICAGO/ROMEOVILLE IL
600 PM CDT THU APR 17 2014

NOTE: "FAIR" INDICATES FEW OR NO CLOUDS BELOW 12,000 FEET WITH NO
SIGNIFICANT WEATHER AND/OR OBSTRUCTIONS TO VISIBILITY.

* THESE STATIONS ARE NOT UNDER NWS QUALITY CONTROL. THEY ALSO MAY NOT
  REPORT WEATHER SUCH AS PRECIPITATION OR FOG.

ILZ001-002-007-009-015-016-024-180000-
NORTHWEST ILLINOIS

CITY           SKY/WX    TMP DP  RH WIND       PRES   REMARKS
MOLINE         PTSUNNY   54  34  46 W10       30.23S
STERLING*      MOSUNNY   57  37  47 W9        30.22S
SAVANNA*       MOSUNNY   57  36  45 W7        30.21S
$$

ILZ003-004-008-010-011-017-018-180000-
NORTH CENTRAL ILLINOIS

CITY           SKY/WX    TMP DP  RH WIND       PRES   REMARKS
ROCKFORD       CLOUDY    56  36  47 W7        30.23R
FREEPORT*      SUNNY     59  39  46 W6        30.22F
ROCHELLE*      MOSUNNY   57  37  46 W5        30.21S
DE KALB*       MOSUNNY   55  37  50 SW8       30.21S
PERU*          CLOUDY    56  38  50 SW5       30.23S
$$

ILZ005-006-012>014-019>023-180000-
NORTHEAST ILLINOIS

CITY           SKY/WX    TMP DP  RH WIND       PRES   REMARKS
CHICAGO-OHARE  CLOUDY    59  37  44 W9        30.20R
CHICAGO-MIDWAY CLOUDY    60  40  47 W12       30.20S
AURORA         PTSUNNY   56  38  50 SW8       30.21S
LANSING*       CLOUDY    59  38  44 W10       30.21R
WAUKEGAN       MOSUNNY   57  37  47 VRB5      30.19S
DUPAGE AIRPORT PTSUNNY   57  38  48 SW14      30.20S
KANKAKEE*      CLOUDY    60  40  48 W9        30.22S
WHEELING       MOSUNNY   59  38  45 W9        30.21R
MORRIS*        CLOUDY    59  34  38 W8        30.22R
ROMEOVILLE*    CLOUDY    58  38  47 W8        30.21S
NORTHERLY ISL    N/A     60  37  42 W6          N/A
$$

LMZ740>746-180000-
SOUTHERN LAKE MICHIGAN

STATION/POSITION SKY/WX   TEMP    WIND        PRES    VSBY  WAVE
                          AIR SEA DIR/SP/G                  HT/PER
                          (F)     (DEG/KT/KT) (MB)    (MI)  (FT/S)
WAUKEGAN HARBOR            58     270/  9/ 11 1023.7S
HARRISON CRIB              59     250/ 13/ 15   N/A
BURNHAM HARBOR             59     270/  8/ 13   N/A
CALUMET HARBOR             60     200/  7/ 11 1023.3S
MICHIGAN CITY              50      20/  2/  3   N/A
$$

ILZ025>027-034>036-040-047-049-050-058-095>099-180000-
WEST-CENTRAL ILLINOIS

CITY           SKY/WX    TMP DP  RH WIND       PRES   REMARKS
QUINCY         CLOUDY    51  35  54 NW3       30.27R
GALESBURG*     CLOUDY    51  39  61 S7        30.25S
MACOMB*        CLOUDY    51  36  57 W7        30.28R
JACKSONVILLE*  CLOUDY    56  38  50 W5        30.26S
PITTSFIELD*    CLOUDY    55  38  52 W3        30.27R
$$

ILZ028>032-037-038-041>044-048-051>054-059>061-180000-
CENTRAL ILLINOIS

CITY           SKY/WX    TMP DP  RH WIND       PRES   REMARKS
PONTIAC        CLOUDY    61  39  44 W8        30.22S
BLOOMINGTON    CLOUDY    56  37  48 SW12      30.24R
DECATUR        PTSUNNY   61  39  44 SW9       30.23S
PEORIA         CLOUDY    55  37  50 NW7       30.25R
LACON*         CLOUDY    55  37  52 W7        30.24R
LINCOLN*       CLOUDY    59  39  46 W3        30.24R
SPRINGFIELD    CLOUDY    59  37  44 W9        30.25R
TAYLORVILLE    PTSUNNY   61  39  44 SW7       30.24S
$$

ILZ033-039-045-046-055>057-062-063-180000-
EAST-CENTRAL ILLINOIS

CITY           SKY/WX    TMP DP  RH WIND       PRES   REMARKS
CHAMPAIGN      CLOUDY    64  37  36 SW10      30.23R
RANTOUL*       CLOUDY    64  37  37 SW10      30.23S
MATTOON        PTSUNNY   64  36  35 SW7       30.22S
PARIS*         PTSUNNY   65  40  39 S9        30.24S
$$

ILZ079-100>102-180000-
SOUTHWEST ILLINOIS

CITY           SKY/WX    TMP DP  RH WIND       PRES   REMARKS
ALTON          PTSUNNY   63  32  31 VRB3      30.23S
BELLEVILLE     PTSUNNY   66  38  36 SE5       30.21S
CAHOKIA*       PTSUNNY   67  40  37 NE8       30.22R
SPARTA*        MOSUNNY   64  34  32 SE7       30.24R
$$

ILZ064>066-069>071-074>076-080>082-084>086-088>090-092>094-180000-
SOUTH-CENTRAL ILLINOIS

CITY           SKY/WX    TMP DP  RH WIND       PRES   REMARKS
CARBONDALE     SUNNY     65  39  38 S9        30.23R
CAIRO*         SUNNY     69  38  32 SE5       30.23F
MARION         MOSUNNY   66  39  37 S9        30.25R
MT. VERNON     SUNNY     66  36  32 S6        30.24S
CENTRALIA*       N/A     65  33  30 CALM      30.23S
SALEM*         MOSUNNY   67  38  35 S5        30.23S
METROPOLIS*    SUNNY     67  32  26 S8        30.22F
$$

ILZ067-068-072-073-078-083-087-091-180000-
SOUTHEAST ILLINOIS

CITY           SKY/WX    TMP DP  RH WIND       PRES   REMARKS
FAIRFIELD*     SUNNY     66  39  37 SW8       30.24S
HARRISBURG*    MOSUNNY   67  38  34 S6        30.25S
ROBINSON*      PTSUNNY   67  40  37 S7        30.25S
CARMI*         MOSUNNY   68  43  40 SE9       30.25R
$$

ABBREVIATIONS USED IN REMARKS
   TC - TEMPERATURE IN CELSIUS
  WCI - WIND CHILL INDEX
   HX - HEAT INDEX
  VSB - VISIBILITY
$$




USA.gov is the U.S. government's official web portal to all federal, state and local government web resources and services.